Regional Weather Roundup
Issued by NWS

Home | Current Version | Previous Version | Text Only | Print | Product List | Glossary Off
Versions: 1 2 3 4 5 6 7 8 9 10 11 12 13 14 15 16 17 18 19 20 21 22 23 24 25 26 27 28 29 30 31 32 33 34 35 36 37 38 39 40 41 42 43 44 45 46 47 48 49 50

000
ASUS45 KCYS 152210
RWRWY

WYOMING REGIONAL WEATHER ROUNDUP
NATIONAL WEATHER SERVICE CHEYENNE WY
400 PM MDT MON SEP 15 2014

NOTE:  "FAIR" INDICATES FEW OR NO CLOUDS BELOW 12,000 FEET
WITH NO SIGNIFICANT WEATHER AND/OR OBSTRUCTIONS TO VISIBILITY.

WYZ001-152300-
YELLOWSTONE NATIONAL PARK

CITY           SKY/WX    TMP DP  RH WIND       PRES   REMARKS
LK YELLOWSTONE   N/A     66  30  26 VRB5      30.32S
W YELLOWSTONE  NOT AVBL

$$
WYZ002>013-054>058-071-098>099-152300-
NORTHERN WYOMING

CITY           SKY/WX    TMP DP  RH WIND       PRES   REMARKS
JACKSON        MOSUNNY   79  28  15 SW16G25   30.19F
CODY           SUNNY     70  41  35 CALM      30.12F
GREYBULL       SUNNY     76  39  26 VRB3      30.06F
WORLAND        SUNNY     79  41  25 N5        30.06F
SHERIDAN       SUNNY     74  46  36 NW5       30.09F
BUFFALO        SUNNY     73  41  31 SE3       30.14F
GILLETTE       SUNNY     72  43  35 SE14      30.12F
HULETT         FAIR      70  37  30 MISG      30.16
NEWCASTLE      FAIR      68  34  28 S13       30.18

$$
WYZ014>020-022>026-101>103-152300-
CENTRAL WYOMING

CITY           SKY/WX    TMP DP  RH WIND       PRES   REMARKS
BIG PINEY      PTSUNNY   73  30  20 NW9G24    30.26S
PINEDALE       PTCLDY    73  30  20 W10G18    30.26F
DUBOIS         FAIR      72  27  18 NW18G28   30.23S
LANDER         SUNNY     73  40  30 CALM      30.12F
RIVERTON       SUNNY     74  39  28 E5        30.14F
CASPER         MOSUNNY   82  30  15 W6        30.13F
DOUGLAS        SUNNY     76  41  28 SE17G25   30.16F

$$
WYZ021-027>030-104>119-152300-
SOUTHERN WYOMING

CITY           SKY/WX    TMP DP  RH WIND       PRES   REMARKS
EVANSTON       MOSUNNY   77  26  15 W20G29    30.28S
KEMMERER       PTCLDY    79  27  14 W20G26    30.28S
FORT BRIDGER   MOCLDY    81  32  17 W13       30.29S
ROCK SPRINGS   MOSUNNY   78  32  18 SW13G25   30.24F
DIXON          FAIR      78  37  22 W5        30.27F
RAWLINS        MOSUNNY   75  28  17 W9        30.25F
SARATOGA       MOCLDY    79  32  18 W17       30.28F
LARAMIE        MOSUNNY   72  31  22 SE9       30.29F
CHEYENNE       SUNNY     69  36  29 S20       30.28F
TORRINGTON     SUNNY     71  47  42 E18       30.16F
PINE BLUFFS    FAIR      70  39  32 S13G24    30.25F

$$



USA.gov is the U.S. government's official web portal to all federal, state and local government web resources and services.